| time (UTC) | temp F | wind direction | speed MPH | gust MPH | rain 1hr in | rain 24hr in | rain mn in | humidity % | barometer mb |
| 20260502181348 | 67 | 247 | 0.0 | 0.0 | 0.00 | 0.00 | 0.00 | 41 | 1013.2 |
| 20260502180848 | 67 | 0 | 0.0 | 0.0 | 0.00 | 0.00 | 0.00 | 41 | 1013.1 |
| 20260502180348 | 67 | 247 | 0.0 | 0.0 | 0.00 | 0.00 | 0.00 | 40 | 1013.0 |
| 20260502170348 | 71 | 22 | 0.0 | 5.0 | 0.00 | 0.00 | 0.00 | 36 | 1012.9 |
| 20260502164348 | 73 | 202 | 0.0 | 5.0 | 0.00 | 0.00 | 0.00 | 36 | 1012.7 |
| 20260502163848 | 73 | 225 | 0.0 | 6.0 | 0.00 | 0.00 | 0.00 | 37 | 1012.7 |
| 20260502163348 | 73 | 180 | 0.0 | 6.0 | 0.00 | 0.00 | 0.00 | 35 | 1012.6 |
| 20260502162848 | 73 | 180 | 2.0 | 5.0 | 0.00 | 0.00 | 0.00 | 36 | 1012.6 |
| 20260502162348 | 74 | 180 | 4.0 | 5.0 | 0.00 | 0.00 | 0.00 | 35 | 1012.7 |
| 20260502161848 | 74 | 180 | 0.0 | 14.0 | 0.00 | 0.00 | 0.00 | 35 | 1012.8 |
| 20260502161348 | 74 | 202 | 0.0 | 8.0 | 0.00 | 0.00 | 0.00 | 36 | 1012.7 |
| 20260502160848 | 74 | 202 | 0.0 | 6.0 | 0.00 | 0.00 | 0.00 | 36 | 1012.8 |
| 20260502160348 | 74 | 202 | 0.0 | 6.0 | 0.00 | 0.00 | 0.00 | 35 | 1012.9 |
| 20260502151848 | 75 | 135 | 4.0 | 9.0 | 0.00 | 0.00 | 0.00 | 36 | 1013.0 |
| 20260502151348 | 74 | 135 | 0.0 | 0.0 | 0.00 | 0.00 | 0.00 | 37 | 1013.0 |
| 20260502150848 | 73 | 45 | 0.0 | 0.0 | 0.00 | 0.00 | 0.00 | 38 | 1013.0 |
| 20260502150348 | 73 | 0 | 0.0 | 0.0 | 0.00 | 0.00 | 0.00 | 39 | 1013.1 |
| 20260502130348 | 72 | 292 | 1.0 | 1.0 | 0.00 | 0.00 | 0.00 | 39 | 1014.7 |
| 20260502123348 | 71 | 0 | 0.0 | 2.0 | 0.00 | 0.00 | 0.00 | 39 | 1015.0 |
| 20260502122848 | 72 | 22 | 0.0 | 0.0 | 0.00 | 0.00 | 0.00 | 41 | 1015.1 |
| 20260502122445 | 71 | 337 | 0.0 | 0.0 | 0.00 | 0.00 | 0.00 | 42 | 1015.2 |
| 20260502122348 | 71 | 337 | 0.0 | 0.0 | 0.00 | 0.00 | 0.00 | 42 | 1015.2 |
| 20260502121848 | 70 | 315 | 0.0 | 0.0 | 0.00 | 0.00 | 0.00 | 40 | 1015.3 |
| 20260502121348 | 71 | 315 | 0.0 | 3.0 | 0.00 | 0.00 | 0.00 | 41 | 1015.6 |
| 20260502120848 | 70 | 270 | 0.0 | 0.0 | 0.00 | 0.00 | 0.00 | 41 | 1015.6 |
| 20260502120348 | 70 | 292 | 0.0 | 0.0 | 0.00 | 0.00 | 0.00 | 42 | 1015.6 |
| 20260502115848 | 69 | 315 | 0.0 | 0.0 | 0.00 | 0.00 | 0.00 | 42 | 1015.7 |
| 20260502115348 | 69 | 292 | 0.0 | 6.0 | 0.00 | 0.00 | 0.00 | 41 | 1015.8 |
| 20260502114848 | 69 | 270 | 0.0 | 0.0 | 0.00 | 0.00 | 0.00 | 42 | 1015.9 |
| 20260502114349 | 69 | 270 | 0.0 | 0.0 | 0.00 | 0.00 | 0.00 | 42 | 1016.0 |
| 20260502113848 | 67 | 292 | 0.0 | 6.0 | 0.00 | 0.00 | 0.00 | 42 | 1016.0 |
| 20260502113348 | 68 | 292 | 0.0 | 4.0 | 0.00 | 0.00 | 0.00 | 41 | 1016.0 |
| 20260502112848 | 67 | 270 | 0.0 | 6.0 | 0.00 | 0.00 | 0.00 | 42 | 1016.2 |
| 20260502112348 | 68 | 315 | 0.0 | 6.0 | 0.00 | 0.00 | 0.00 | 41 | 1016.3 |
| 20260502111848 | 68 | 270 | 0.0 | 0.0 | 0.00 | 0.00 | 0.00 | 43 | 1016.3 |
| 20260502111348 | 67 | 315 | 2.0 | 2.0 | 0.00 | 0.00 | 0.00 | 43 | 1016.6 |
| 20260502110848 | 67 | 337 | 0.0 | 1.0 | 0.00 | 0.00 | 0.00 | 42 | 1016.7 |
| 20260502110348 | 66 | 315 | 0.0 | 3.0 | 0.00 | 0.00 | 0.00 | 43 | 1016.7 |
| 20260502105848 | 66 | 292 | 0.0 | 2.0 | 0.00 | 0.00 | 0.00 | 43 | 1016.8 |
| 20260502105348 | 67 | 270 | 0.0 | 3.0 | 0.00 | 0.00 | 0.00 | 43 | 1016.9 |
| 20260502104848 | 67 | 292 | 0.0 | 4.0 | 0.00 | 0.00 | 0.00 | 45 | 1016.9 |
| 20260502104348 | 66 | 292 | 0.0 | 4.0 | 0.00 | 0.00 | 0.00 | 45 | 1017.0 |
| 20260502103848 | 66 | 337 | 0.0 | 0.0 | 0.00 | 0.00 | 0.00 | 45 | 1017.2 |
| 20260502103348 | 66 | 270 | 0.0 | 0.0 | 0.00 | 0.00 | 0.00 | 46 | 1017.3 |
| 20260502102848 | 66 | 292 | 0.0 | 0.0 | 0.00 | 0.00 | 0.00 | 47 | 1017.5 |
| 20260502102420 | 65 | 292 | 0.0 | 3.0 | 0.00 | 0.00 | 0.00 | 45 | 1017.4 |
| 20260502102348 | 65 | 292 | 0.0 | 3.0 | 0.00 | 0.00 | 0.00 | 45 | 1017.4 |
| 20260502101848 | 65 | 337 | 3.0 | 6.0 | 0.00 | 0.00 | 0.00 | 46 | 1017.4 |
| 20260502101348 | 65 | 315 | 0.0 | 0.0 | 0.00 | 0.00 | 0.00 | 48 | 1017.5 |
| 20260502100848 | 64 | 337 | 0.0 | 3.0 | 0.00 | 0.00 | 0.00 | 48 | 1017.7 |
| 20260502100348 | 64 | 180 | 0.0 | 0.0 | 0.00 | 0.00 | 0.00 | 49 | 1017.7 |
| 20260502091348 | 60 | 292 | 0.0 | 6.0 | 0.00 | 0.00 | 0.00 | 51 | 1018.6 |
| 20260502090848 | 60 | 315 | 0.0 | 3.0 | 0.00 | 0.00 | 0.00 | 54 | 1018.7 |
| 20260502090348 | 60 | 315 | 3.0 | 5.0 | 0.00 | 0.00 | 0.00 | 53 | 1018.7 |
| 20260502071349 | 53 | 315 | 0.0 | 0.0 | 0.00 | 0.00 | 0.00 | 67 | 1020.0 |
| 20260502070849 | 53 | 337 | 0.0 | 0.0 | 0.00 | 0.00 | 0.00 | 66 | 1020.0 |
| 20260502070349 | 53 | 45 | 0.0 | 0.0 | 0.00 | 0.00 | 0.00 | 68 | 1020.1 |
| 20260502065849 | 53 | 45 | 0.0 | 0.0 | 0.00 | 0.00 | 0.00 | 68 | 1020.2 |
| 20260502065349 | 52 | 67 | 0.0 | 0.0 | 0.00 | 0.00 | 0.00 | 69 | 1020.2 |
| 20260502064849 | 52 | 22 | 0.0 | 0.0 | 0.00 | 0.00 | 0.00 | 70 | 1020.2 |
| 20260502064349 | 52 | 45 | 0.0 | 0.0 | 0.00 | 0.00 | 0.00 | 70 | 1020.1 |
| 20260502063849 | 51 | 45 | 0.0 | 0.0 | 0.00 | 0.00 | 0.00 | 71 | 1020.1 |
| 20260502063349 | 50 | 45 | 0.0 | 0.0 | 0.00 | 0.00 | 0.00 | 72 | 1020.2 |
| 20260502062849 | 50 | 45 | 0.0 | 0.0 | 0.00 | 0.00 | 0.00 | 72 | 1020.3 |
| 20260502062349 | 50 | 45 | 0.0 | 0.0 | 0.00 | 0.00 | 0.00 | 73 | 1020.3 |
| 20260502061849 | 50 | 45 | 0.0 | 0.0 | 0.00 | 0.00 | 0.00 | 73 | 1020.2 |
| 20260502061349 | 50 | 45 | 0.0 | 0.0 | 0.00 | 0.00 | 0.00 | 74 | 1020.4 |
| 20260502060849 | 50 | 67 | 0.0 | 0.0 | 0.00 | 0.00 | 0.00 | 74 | 1020.5 |
| 20260502060421 | 49 | 67 | 0.0 | 0.0 | 0.00 | 0.00 | 0.00 | 74 | 1020.5 |
| 20260502060349 | 49 | 67 | 0.0 | 0.0 | 0.00 | 0.00 | 0.00 | 74 | 1020.5 |
| 20260502055849 | 49 | 67 | 0.0 | 0.0 | 0.00 | 0.00 | 0.00 | 74 | 1020.6 |
| 20260502055349 | 49 | 67 | 0.0 | 0.0 | 0.00 | 0.00 | 0.00 | 74 | 1020.6 |
| 20260502054849 | 48 | 67 | 0.0 | 0.0 | 0.00 | 0.00 | 0.00 | 74 | 1020.6 |
| 20260502054349 | -22 | 67 | 0.0 | 0.0 | 0.00 | 0.00 | 0.00 | 74 | 1020.7 |
| 20260502053849 | 48 | 67 | 0.0 | 0.0 | 0.00 | 0.00 | 0.00 | 74 | 1020.7 |
| 20260502053349 | 47 | 67 | 0.0 | 0.0 | 0.00 | 0.00 | 0.00 | 74 | 1020.8 |
| 20260502052849 | 47 | 67 | 0.0 | 0.0 | 0.00 | 0.00 | 0.00 | 74 | 1020.7 |
| 20260502052349 | 47 | 90 | 0.0 | 0.0 | 0.00 | 0.00 | 0.00 | 74 | 1020.8 |
| 20260502051849 | 46 | 90 | 0.0 | 0.0 | 0.00 | 0.00 | 0.00 | 74 | 1020.7 |
| 20260502051349 | 46 | 90 | 0.0 | 0.0 | 0.00 | 0.00 | 0.00 | 74 | 1020.8 |
| 20260502050849 | 46 | 90 | 0.0 | 0.0 | 0.00 | 0.00 | 0.00 | 74 | 1020.7 |
| 20260502050349 | 45 | 90 | 0.0 | 0.0 | 0.00 | 0.00 | 0.00 | 74 | 1020.7 |
| 20260502045849 | 44 | 90 | 0.0 | 0.0 | 0.00 | 0.00 | 0.00 | 74 | 1020.7 |
| 20260502045349 | 44 | 90 | 0.0 | 0.0 | 0.00 | 0.00 | 0.00 | 74 | 1020.6 |
| 20260502044849 | 43 | 90 | 0.0 | 0.0 | 0.00 | 0.00 | 0.00 | 74 | 1020.6 |
| 20260502044349 | 43 | 90 | 0.0 | 0.0 | 0.00 | 0.00 | 0.00 | 74 | 1020.6 |
| 20260502043849 | 42 | 90 | 0.0 | 0.0 | 0.00 | 0.00 | 0.00 | 74 | 1020.6 |
| 20260502043349 | 42 | 90 | 0.0 | 0.0 | 0.00 | 0.00 | 0.00 | 74 | 1020.6 |
| 20260502042849 | 42 | 90 | 0.0 | 0.0 | 0.00 | 0.00 | 0.00 | 73 | 1020.5 |
| 20260502042349 | 42 | 90 | 0.0 | 0.0 | 0.00 | 0.00 | 0.00 | 73 | 1020.5 |
| 20260502041849 | 42 | 90 | 0.0 | 0.0 | 0.00 | 0.00 | 0.00 | 73 | 1020.4 |
| 20260502041349 | 42 | 90 | 0.0 | 0.0 | 0.00 | 0.00 | 0.00 | 73 | 1020.5 |
| 20260502040849 | 42 | 90 | 0.0 | 0.0 | 0.00 | 0.00 | 0.00 | 73 | 1020.5 |
| 20260502040349 | 42 | 90 | 0.0 | 0.0 | 0.00 | 0.00 | 0.00 | 73 | 1020.3 |
| 20260502035849 | 42 | 90 | 0.0 | 0.0 | 0.00 | 0.00 | 0.00 | 73 | 1020.3 |
| 20260502035349 | 42 | 90 | 0.0 | 0.0 | 0.00 | 0.00 | 0.00 | 73 | 1020.3 |
| 20260502034849 | 42 | 90 | 0.0 | 0.0 | 0.00 | 0.00 | 0.00 | 73 | 1020.4 |
| 20260502034349 | 42 | 90 | 0.0 | 0.0 | 0.00 | 0.00 | 0.00 | 73 | 1020.3 |
| 20260502033849 | 42 | 90 | 0.0 | 0.0 | 0.00 | 0.00 | 0.00 | 73 | 1020.3 |
| 20260502033349 | 41 | 90 | 0.0 | 0.0 | 0.00 | 0.00 | 0.00 | 73 | 1020.3 |
| 20260502032849 | 41 | 90 | 0.0 | 0.0 | 0.00 | 0.00 | 0.00 | 73 | 1020.4 |
| 20260502032349 | 41 | 90 | 0.0 | 0.0 | 0.00 | 0.00 | 0.00 | 73 | 1020.3 |
| 20260502031849 | 42 | 90 | 0.0 | 0.0 | 0.00 | 0.00 | 0.00 | 73 | 1020.3 |
| 20260502031349 | 42 | 90 | 0.0 | 0.0 | 0.00 | 0.00 | 0.00 | 72 | 1020.2 |
| 20260502030849 | 41 | 90 | 0.0 | 0.0 | 0.00 | 0.00 | 0.00 | 72 | 1020.2 |
| 20260502030349 | 41 | 90 | 0.0 | 0.0 | 0.00 | 0.00 | 0.00 | 72 | 1020.2 |
| 20260502025849 | 42 | 90 | 0.0 | 0.0 | 0.00 | 0.00 | 0.00 | 72 | 1020.3 |
| 20260502025349 | 42 | 90 | 0.0 | 0.0 | 0.00 | 0.00 | 0.00 | 71 | 1020.2 |
| 20260502024849 | 42 | 90 | 0.0 | 0.0 | 0.00 | 0.00 | 0.00 | 70 | 1020.2 |
| 20260502024349 | 42 | 112 | 0.0 | 0.0 | 0.00 | 0.00 | 0.00 | 70 | 1020.3 |
| 20260502023849 | 42 | 112 | 0.0 | 0.0 | 0.00 | 0.00 | 0.00 | 70 | 1020.2 |
| 20260502023349 | 42 | 112 | 0.0 | 0.0 | 0.00 | 0.00 | 0.00 | 70 | 1020.2 |
| 20260502022849 | 43 | 90 | 0.0 | 0.0 | 0.00 | 0.00 | 0.00 | 70 | 1020.2 |
| 20260502022349 | 43 | 112 | 0.0 | 0.0 | 0.00 | 0.00 | 0.00 | 70 | 1020.3 |
| 20260502021849 | 43 | 112 | 0.0 | 0.0 | 0.00 | 0.00 | 0.00 | 70 | 1020.2 |
| 20260502021349 | 43 | 90 | 0.0 | 0.0 | 0.00 | 0.00 | 0.00 | 69 | 1020.2 |
| 20260502020849 | 43 | 90 | 0.0 | 0.0 | 0.00 | 0.00 | 0.00 | 69 | 1020.3 |
| 20260502020349 | 43 | 90 | 0.0 | 0.0 | 0.00 | 0.00 | 0.00 | 70 | 1020.3 |
| 20260502015849 | 43 | 90 | 0.0 | 0.0 | 0.00 | 0.00 | 0.00 | 69 | 1020.2 |
| 20260502015349 | 43 | 90 | 0.0 | 0.0 | 0.00 | 0.00 | 0.00 | 69 | 1020.2 |
| 20260502014849 | 44 | 90 | 0.0 | 0.0 | 0.00 | 0.00 | 0.00 | 68 | 1020.3 |
| 20260502014349 | 44 | 90 | 0.0 | 0.0 | 0.00 | 0.00 | 0.00 | 68 | 1020.2 |
| 20260502013849 | 45 | 90 | 0.0 | 0.0 | 0.00 | 0.00 | 0.00 | 68 | 1020.2 |
| 20260502013349 | 45 | 90 | 0.0 | 0.0 | 0.00 | 0.00 | 0.00 | 68 | 1020.2 |
| 20260502012849 | 45 | 90 | 0.0 | 0.0 | 0.00 | 0.00 | 0.00 | 68 | 1020.3 |
| 20260502012349 | 45 | 90 | 0.0 | 0.0 | 0.00 | 0.00 | 0.00 | 68 | 1020.2 |
| 20260502011849 | 45 | 90 | 0.0 | 0.0 | 0.00 | 0.00 | 0.00 | 68 | 1020.2 |
| 20260502011349 | 45 | 90 | 0.0 | 0.0 | 0.00 | 0.00 | 0.00 | 67 | 1020.2 |
| 20260502010849 | 45 | 90 | 0.0 | 0.0 | 0.00 | 0.00 | 0.00 | 68 | 1020.2 |
| 20260502010349 | 45 | 90 | 0.0 | 0.0 | 0.00 | 0.00 | 0.00 | 68 | 1020.2 |
| 20260502005849 | 45 | 90 | 0.0 | 0.0 | 0.00 | 0.00 | 0.00 | 68 | 1020.3 |
| 20260502005349 | 45 | 90 | 0.0 | 0.0 | 0.00 | 0.00 | 0.00 | 68 | 1020.2 |
| 20260502004849 | 45 | 90 | 0.0 | 0.0 | 0.00 | 0.00 | 0.00 | 68 | 1020.2 |
| 20260502004349 | 45 | 90 | 0.0 | 0.0 | 0.00 | 0.00 | 0.00 | 68 | 1020.2 |
| 20260502003849 | 45 | 90 | 0.0 | 0.0 | 0.00 | 0.00 | 0.00 | 67 | 1020.4 |
| 20260502003349 | 45 | 90 | 0.0 | 0.0 | 0.00 | 0.00 | 0.00 | 66 | 1020.3 |
| 20260502002849 | 45 | 90 | 0.0 | 0.0 | 0.00 | 0.00 | 0.00 | 66 | 1020.4 |
| 20260502002349 | 46 | 90 | 0.0 | 0.0 | 0.00 | 0.00 | 0.00 | 66 | 1020.3 |
| 20260502001849 | 46 | 90 | 0.0 | 0.0 | 0.00 | 0.00 | 0.00 | 66 | 1020.3 |
| 20260502001350 | 46 | 90 | 0.0 | 0.0 | 0.00 | 0.00 | 0.00 | 66 | 1020.3 |
| 20260502000849 | 45 | 90 | 0.0 | 0.0 | 0.00 | 0.00 | 0.00 | 67 | 1020.3 |
| 20260502000349 | 44 | 90 | 0.0 | 0.0 | 0.00 | 0.00 | 0.00 | 67 | 1020.3 |
| 20260501235849 | 44 | 90 | 0.0 | 0.0 | 0.00 | 0.00 | 0.00 | 67 | 1020.3 |
| 20260501235349 | 45 | 90 | 0.0 | 0.0 | 0.00 | 0.00 | 0.00 | 67 | 1020.3 |
| 20260501234849 | 45 | 135 | 0.0 | 0.0 | 0.00 | 0.00 | 0.00 | 65 | 1020.4 |
| 20260501234349 | 46 | 135 | 0.0 | 0.0 | 0.00 | 0.00 | 0.00 | 64 | 1020.5 |
| 20260501233849 | 46 | 135 | 0.0 | 0.0 | 0.00 | 0.00 | 0.00 | 64 | 1020.4 |
| 20260501233349 | 46 | 135 | 0.0 | 0.0 | 0.00 | 0.00 | 0.00 | 64 | 1020.3 |
| 20260501232849 | 46 | 135 | 0.0 | 0.0 | 0.00 | 0.00 | 0.00 | 64 | 1020.3 |
| 20260501232349 | 45 | 90 | 0.0 | 0.0 | 0.00 | 0.00 | 0.00 | 65 | 1020.2 |
| 20260501231849 | 45 | 67 | 0.0 | 0.0 | 0.00 | 0.00 | 0.00 | 65 | 1020.2 |
| 20260501231349 | 46 | 67 | 0.0 | 0.0 | 0.00 | 0.00 | 0.00 | 64 | 1020.2 |
| 20260501230849 | 47 | 67 | 0.0 | 0.0 | 0.00 | 0.00 | 0.00 | 63 | 1020.2 |
| 20260501230349 | 47 | 67 | 0.0 | 0.0 | 0.00 | 0.00 | 0.00 | 61 | 1020.1 |
| 20260501225849 | 48 | 67 | 0.0 | 0.0 | 0.00 | 0.00 | 0.00 | 61 | 1020.1 |
| 20260501225349 | 48 | 67 | 0.0 | 0.0 | 0.00 | 0.00 | 0.00 | 61 | 1020.0 |
| 20260501224849 | 48 | 67 | 0.0 | 0.0 | 0.00 | 0.00 | 0.00 | 60 | 1020.1 |
| 20260501224349 | 48 | 67 | 0.0 | 0.0 | 0.00 | 0.00 | 0.00 | 60 | 1020.2 |
| 20260501223850 | 48 | 67 | 0.0 | 0.0 | 0.00 | 0.00 | 0.00 | 60 | 1020.2 |
| 20260501223350 | 48 | 67 | 0.0 | 0.0 | 0.00 | 0.00 | 0.00 | 60 | 1020.0 |
| 20260501222850 | 48 | 67 | 0.0 | 0.0 | 0.00 | 0.00 | 0.00 | 60 | 1020.0 |
| 20260501222350 | 48 | 67 | 0.0 | 0.0 | 0.00 | 0.00 | 0.00 | 59 | 1019.9 |
| 20260501221850 | 48 | 67 | 0.0 | 0.0 | 0.00 | 0.00 | 0.00 | 60 | 1019.8 |
| 20260501221351 | 49 | 67 | 0.0 | 0.0 | 0.00 | 0.00 | 0.00 | 59 | 1019.9 |
| 20260501220850 | 49 | 67 | 0.0 | 0.0 | 0.00 | 0.00 | 0.00 | 58 | 1019.9 |
| 20260501220350 | 49 | 67 | 0.0 | 0.0 | 0.00 | 0.00 | 0.00 | 58 | 1019.9 |
| 20260501215850 | 0 | 67 | 0.0 | 0.0 | 0.00 | 0.00 | 0.00 | 1019.9 | |
| 20260501215350 | 49 | 67 | 0.0 | 0.0 | 0.00 | 0.00 | 0.00 | 58 | 1019.6 |
| 20260501214850 | 49 | 67 | 0.0 | 0.0 | 0.00 | 0.00 | 0.00 | 57 | 1019.6 |
| 20260501214350 | 50 | 67 | 0.0 | 0.0 | 0.00 | 0.00 | 0.00 | 56 | 1019.5 |
| 20260501213850 | 50 | 67 | 0.0 | 0.0 | 0.00 | 0.00 | 0.00 | 56 | 1019.5 |
| 20260501213350 | 51 | 67 | 0.0 | 0.0 | 0.00 | 0.00 | 0.00 | 55 | 1019.5 |
| 20260501212850 | 51 | 67 | 0.0 | 0.0 | 0.00 | 0.00 | 0.00 | 55 | 1019.4 |
| 20260501212350 | 51 | 67 | 0.0 | 0.0 | 0.00 | 0.00 | 0.00 | 55 | 1019.4 |
| 20260501211850 | 51 | 67 | 0.0 | 0.0 | 0.00 | 0.00 | 0.00 | 55 | 1019.4 |
| 20260501211350 | 52 | 67 | 0.0 | 0.0 | 0.00 | 0.00 | 0.00 | 56 | 1019.2 |
| 20260501210850 | 52 | 67 | 0.0 | 0.0 | 0.00 | 0.00 | 0.00 | 55 | 1019.2 |
| 20260501210350 | 52 | 67 | 0.0 | 0.0 | 0.00 | 0.00 | 0.00 | 56 | 1019.2 |
| 20260501205850 | 52 | 45 | 0.0 | 0.0 | 0.00 | 0.00 | 0.00 | 55 | 1019.2 |
| 20260501205350 | 52 | 45 | 0.0 | 0.0 | 0.00 | 0.00 | 0.00 | 55 | 1019.2 |
| 20260501204850 | 52 | 45 | 0.0 | 0.0 | 0.00 | 0.00 | 0.00 | 56 | 1019.1 |
| 20260501204350 | 53 | 45 | 0.0 | 0.0 | 0.00 | 0.00 | 0.00 | 53 | 1019.0 |
| 20260501203850 | 53 | 45 | 0.0 | 0.0 | 0.00 | 0.00 | 0.00 | 52 | 1019.0 |
| 20260501203350 | 53 | 45 | 0.0 | 0.0 | 0.00 | 0.00 | 0.00 | 52 | 1018.9 |
| 20260501202850 | 54 | 45 | 0.0 | 0.0 | 0.00 | 0.00 | 0.00 | 51 | 1018.9 |
| 20260501202350 | 55 | 45 | 0.0 | 0.0 | 0.00 | 0.00 | 0.00 | 49 | 1018.8 |
| 20260501201850 | 55 | 45 | 0.0 | 0.0 | 0.00 | 0.00 | 0.00 | 48 | 1018.8 |
| 20260501201350 | 55 | 45 | 0.0 | 0.0 | 0.00 | 0.00 | 0.00 | 47 | 1018.9 |
| 20260501200850 | 55 | 45 | 0.0 | 0.0 | 0.00 | 0.00 | 0.00 | 47 | 1018.7 |
| 20260501200350 | 55 | 45 | 0.0 | 0.0 | 0.00 | 0.00 | 0.00 | 47 | 1018.7 |
| 20260501195850 | 55 | 45 | 0.0 | 0.0 | 0.00 | 0.00 | 0.00 | 47 | 1018.6 |
| 20260501195350 | 55 | 67 | 0.0 | 0.0 | 0.00 | 0.00 | 0.00 | 47 | 1018.6 |
| 20260501194850 | 55 | 67 | 0.0 | 0.0 | 0.00 | 0.00 | 0.00 | 47 | 1018.6 |
| 20260501194350 | 55 | 67 | 0.0 | 0.0 | 0.00 | 0.00 | 0.00 | 47 | 1018.4 |
| 20260501193850 | 55 | 67 | 0.0 | 0.0 | 0.00 | 0.00 | 0.00 | 46 | 1018.3 |
| 20260501193350 | 56 | 45 | 0.0 | 0.0 | 0.00 | 0.00 | 0.00 | 46 | 1018.2 |
| 20260501192850 | 56 | 45 | 0.0 | 0.0 | 0.00 | 0.00 | 0.00 | 46 | 1018.1 |
| 20260501192350 | 57 | 45 | 0.0 | 0.0 | 0.00 | 0.00 | 0.00 | 45 | 1018.1 |
| 20260501191850 | 57 | 45 | 0.0 | 0.0 | 0.00 | 0.00 | 0.00 | 43 | 1018.1 |
| 20260501191350 | 58 | 45 | 0.0 | 0.0 | 0.00 | 0.00 | 0.00 | 42 | 1018.1 |
| 20260501190850 | 58 | 45 | 0.0 | 0.0 | 0.00 | 0.00 | 0.00 | 42 | 1018.0 |
| 20260501190350 | 59 | 45 | 0.0 | 0.0 | 0.00 | 0.00 | 0.00 | 42 | 1017.9 |
| 20260501185850 | 59 | 202 | 0.0 | 0.0 | 0.00 | 0.00 | 0.00 | 40 | 1017.8 |
| 20260501185350 | 59 | 180 | 0.0 | 4.0 | 0.00 | 0.00 | 0.00 | 40 | 1017.7 |
| 20260501184850 | 60 | 225 | 0.0 | 0.0 | 0.00 | 0.00 | 0.00 | 40 | 1017.6 |
| 20260501184350 | 60 | 270 | 0.0 | 0.0 | 0.00 | 0.00 | 0.00 | 39 | 1017.5 |
| 20260501183850 | 60 | 157 | 0.0 | 0.0 | 0.00 | 0.00 | 0.00 | 39 | 1017.3 |
| 20260501183350 | 60 | 270 | 0.0 | 0.0 | 0.00 | 0.00 | 0.00 | 39 | 1017.2 |
| 20260501182850 | 60 | 270 | 0.0 | 0.0 | 0.00 | 0.00 | 0.00 | 39 | 1017.2 |
| 20260501182350 | 61 | 247 | 0.0 | 1.0 | 0.00 | 0.00 | 0.00 | 39 | 1017.1 |
| 20260501181850 | 61 | 225 | 0.0 | 8.0 | 0.00 | 0.00 | 0.00 | 38 | 1016.9 |